Find Starlink 2418

NORAD ID: 48097 Int'l Des: 2021-027 Owner: SPXS Country: US Constellation: starlink operational
LEOCIRCULARSTARLINK_TYPE

实时位置

正在加载3D地球...

关于 Starlink 2418

正在加载描述...

即将过境

Passes for default location (London). Set your location on the main map for personalized predictions.

高度历史

Loading altitude history...

两行轨道根数

1 48097U 21027F 26123.76502043 -.00000451 00000-0 -27596-5 0 9997
2 48097 53.1622 256.8552 0001155 82.9388 277.1745 15.31697148281113
Epoch: May 3, 2026 • Age: 12 hours

当前状态

高度 478.3 km
速度 7.63 km/s
星下点 -24.55°S, 138.69°E
发射日期 Apr 7, 2021
运行时间 5 years
类型 internet

技术详情

分类 Payload
质量 260.00 kg
干质量 248.00 kg
总质量 260.00 kg
长度 0.20 m
直径 2.80 m
跨度 9.00 m
形状 Box + pan
制造商 SPXS
平台类型 Starlink
阶段状态 In Orbit
所有者/国家 SPXS/US

Most Searched